Home   Weather   Woodbridge Crossing   Past weeks
Flag for USA

Past Weather in Woodbridge Crossing, Arizona, USA — Yesterday and Last 2 Weeks

Now
101 °F

Sunny.


Feels Like: 101 °F
Forecast: 111 / 85 °F
Wind: 7 mph from North

Location: Mesa / Falcon Field

Current Time: Jul 15, 2019 at 11:25:13 am

Latest Report: Jul 15, 2019 at 10:54 am


Visibility: 10 mi

Pressure: 29.78 "Hg

Humidity: 24%

Dew Point: 58 °F

Location of Woodbridge CrossingLocation

Past Weather in Woodbridge Crossing — Graph

°F

Woodbridge Crossing Temperature Yesterday

Maximum temperature yesterday: 108 °F (at 1:54 pm)
Minimum temperature yesterday: 90 °F (at 5:54 am)
Average temperature yesterday: 99 °F

High & Low Weather Summary for the Past Weeks

 TemperatureHumidityPressure
High111 °F (Jul 11, 2:54 pm)45% (Jul 6, 5:54 am)29.93 "Hg (Jul 6, 5:54 am)
Low75 °F (Jul 9, 5:54 am)5% (Jul 8, 3:30 pm)29.61 "Hg (Jul 12, 5:54 pm)
Average95 °F18%29.77 "Hg
* Reported Jun 30 9:54 am — Jul 15 9:54 am, Woodbridge Crossing. Weather by CustomWeather, © 2019

Note: Actual official high and low records may vary slightly from our data, if they occured in-between our weather recording intervals... More about our weather records

Advertising

Woodbridge Crossing Weather History for the Previous 24 Hours

Scroll right to see more
 ConditionsComfort  
Time TempWeatherWind HumidityBarometerVisibility
9:54 am
Mon, Jul 15
99 °FSunny.5 mph27%29.79 "Hg10 mi
8:54 am96 °FSunny.3 mph29%29.80 "Hg10 mi
7:54 am94 °FSunny.5 mph31%29.81 "Hg10 mi
6:54 am91 °FSunny.5 mph34%29.80 "Hg10 mi
5:54 am89 °FSunny.6 mph36%29.80 "Hg10 mi
4:54 am88 °FClear.5 mph38%29.79 "Hg10 mi
3:54 am89 °FClear.6 mph36%29.78 "Hg10 mi
2:54 am91 °FClear.3 mph34%29.78 "Hg10 mi
1:54 am91 °FClear.7 mph36%29.78 "Hg10 mi
12:54 am91 °FClear.12 mph36%29.80 "Hg10 mi
11:54 pm
Sun, Jul 14
92 °FClear.9 mph36%29.81 "Hg10 mi
10:54 pm96 °FClear.6 mph27%29.79 "Hg10 mi
9:54 pm98 °FClear.8 mph24%29.77 "Hg10 mi
8:54 pm98 °FClear.7 mph24%29.75 "Hg10 mi
7:54 pm101 °FClear.7 mph20%29.73 "Hg10 mi
6:54 pm103 °FSunny.13 mph19%29.72 "Hg10 mi
6:13 pm105 °FSunny.18 mph18%29.81 "Hg10 mi
5:54 pm108 °FSunny.14 mph17%29.72 "Hg10 mi
4:54 pm108 °FSunny.12 mph18%29.72 "Hg10 mi
3:54 pm108 °FSunny.12 mph17%29.74 "Hg10 mi
2:54 pm108 °FSunny.12 mph17%29.75 "Hg10 mi
1:54 pm108 °FSunny.13 mph18%29.78 "Hg10 mi
12:54 pm105 °FSunny.12 mph22%29.80 "Hg10 mi
11:54 am103 °FSunny.3 mph23%29.83 "Hg10 mi
Weather by CustomWeather, © 2019

See weather overview